Terminal Aerodrome Forecast
Issued by NWS

Home | Current Version | Previous Version | Text Only | Print | Product List | Glossary On
Versions: 1 2 3 4 5 6 7 8 9 10 11 12 13 14 15 16 17 18 19 20 21 22 23 24 25 26 27 28 29 30 31 32 33 34 35 36 37 38 39 40 41 42
000
FTUS43 KGLD 171208 AAA
TAFMCK
TAF AMD
KMCK 171208Z 1712/1812 VRB04KT 3SM BR SCT005
      TEMPO 1712/1714 1/4SM FG VV001
     FM171500 VRB05KT P6SM SCT015
     FM171700 13005KT P6SM SKC
     FM180200 08010KT P6SM SKC
     FM180600 11005KT 3SM BR SCT005=

USA.gov is the U.S. government's official web portal to all federal, state and local government web resources and services.